Terminal Aerodrome Forecast
Issued by NWS

Home | Current Version | Previous Version | Text Only | Print | Product List | Glossary On
Versions: 1 2 3 4 5 6 7 8 9 10 11 12
000
FTUS46 KSTO 021724
TAFSCK
TAF
KSCK 021724Z 0218/0318 31008KT P6SM SCT250
     FM030000 30012G18KT P6SM SCT250
     FM030700 32007KT P6SM SKC=

USA.gov is the U.S. government's official web portal to all federal, state and local government web resources and services.